This demonstration page uses our WeatherBlox Daily Observations layout. Learn more.

Left ArrowRight Arrow

Hourly Observations for July 4, 2016

Temp ( °F °C ) Dew Point ( °F °C ) Humidity (%) Winds ( mph kmh ) Pressure ( in mb ) Visibility ( mi km ) Precip ( " mm )
12:53 am 00:53 Cloudy 63 17.2 61 16.1 93 93 SE 6 9 29.93 1014 7 11 0.00 0.00
1:15 am 01:15 Cloudy with Mist and Fog 63 17.2 61 16.1 93 93 S 3 6 29.94 1014 6 10 0.00 0.00
1:53 am 01:53 Cloudy with Mist and Fog 62 16.7 61 16.1 96 96 S 5 7 29.93 1013 5 8 0.00 0.00
2:53 am 02:53 Cloudy with Mist and Fog 62 16.7 61 16.1 96 96 SW 5 7 29.89 1012 3 5 0.00 0.00
3:28 am 03:28 Cloudy with Mist and Fog 63 17 61 16 94 94 SW 6 9 29.88 1012 2 3 0.00 0.00
3:42 am 03:42 Cloudy with Mist and Fog 61 16 61 16 100 100 SSE 6 9 29.88 1012 2 2 0.00 0.00
3:53 am 03:53 Cloudy with Mist and Fog 61 16.1 61 16.1 100 100 SSE 7 11 29.88 1012 1 2 0.00 0.00
4:43 am 04:43 Cloudy with Mist and Fog 61 16.1 60 15.6 97 97 Calm 29.88 1012 2 3 0.00 0.00
4:50 am 04:50 Cloudy with Mist and Fog 61 16 61 16 100 100 Calm 29.88 1012 2 2 0.00 0.00
5:53 am 05:53 Cloudy with Mist and Fog 61 16.1 60 15.6 97 97 SSW 5 7 29.89 1012 2 3 0.00 0.00
6:34 am 06:34 Cloudy with Mist and Fog 63 17 61 16 94 94 S 5 7 29.88 1012 2 3 0.00 0.00
6:43 am 06:43 Cloudy with Mist and Fog 62 16.7 61 16.1 96 96 SSW 6 9 29.88 1012 3 5 0.00 0.00
6:53 am 06:53 Cloudy with Mist and Fog 62 16.7 61 16.1 96 96 S 3 6 29.88 1012 5 8 0.00 0.00
7:53 am 07:53 Cloudy 62 16.7 60 15.6 93 93 SSW 7 11 29.88 1012 10 16 0.00 0.00
8:23 am 08:23 Cloudy 63 17.2 61 16.1 93 93 Calm 29.88 1012 10 16 0.00 0.00
8:53 am 08:53 Cloudy 63 17.2 61 16.1 93 93 SW 5 7 29.89 1012 10 16 0.00 0.00
9:53 am 09:53 Cloudy 64 17.8 62 16.7 93 93 S 9 15 29.86 1011 7 11 0.00 0.00
10:35 am 10:35 Cloudy 66 18.9 63 17.2 90 90 S 8 13 29.85 1011 10 16 0.00 0.00
10:53 am 10:53 Cloudy 67 19.4 63 17.2 87 87 S 8 13 29.86 1011 10 16 0.00 0.00
11:53 am 11:53 Cloudy 68 20 64 17.8 87 87 SSW 9 15 29.87 1012 10 16 0.00 0.00
12:53 pm 12:53 Cloudy 70 21.1 65 18.3 84 84 SSW 9 15 29.86 1011 10 16 0.00 0.00
1:53 pm 13:53 Cloudy 73 22.8 65 18.3 76 76 SSW 10 17 29.86 1011 10 16 0.00 0.00
2:09 pm 14:09 Cloudy 73 22.8 65 18.3 76 76 S 10 17 29.83 1010 10 16 0.00 0.00
2:53 pm 14:53 Cloudy 76 24.4 66 18.9 72 72 S 8 13 29.84 1011 10 16 0.00 0.00
3:53 pm 15:53 Cloudy 77 25 67 19.4 71 71 SW 7 11 29.85 1011 10 16 0.00 0.00
4:53 pm 16:53 Cloudy 78 25.6 67 19.4 69 69 S 6 9 29.84 1010 10 16 0.00 0.00
5:34 pm 17:34 Mostly Cloudy 81 27 68 20 66 66 VRB 7 11 29.77 1008 10 16 0.00 0.00
5:53 pm 17:53 Cloudy 81 27.2 68 20 65 65 S 8 13 29.82 1010 10 16 0.00 0.00
6:53 pm 18:53 Sunny 81 27.2 68 20 65 65 VRB 6 9 29.80 1009 10 16 0.00 0.00
7:53 pm 19:53 Sunny 82 27.8 69 20.6 65 65 S 6 9 29.79 1009 10 16 0.00 0.00
8:53 pm 20:53 Sunny 79 26.1 69 20.6 72 72 SE 3 6 29.79 1009 10 16 0.00 0.00
9:53 pm 21:53 Hazy 76 24.4 69 20.6 79 79 SSE 5 7 29.79 1009 5 8 0.00 0.00
10:53 pm 22:53 Hazy 75 23.9 70 21.1 84 84 S 5 7 29.80 1009 6 10 0.00 0.00
11:53 pm 23:53 Clear with Mist and Fog 73 22.8 69 20.6 87 87 SSE 6 9 29.80 1009 5 8 0.00 0.00

Powered by AerisWeather